Temperature
18 18 17 17 17 17 17 17 17 17 17 17 17 17 17 17 17 17 17 17 17 17 17 17 16 16 16 16 16 16 16 16 16 16 16 15 15 15 15 15 15 15 15
17 17 17 17 17 17 17 17 17 17 17 17 17 17 17 17 17 17 17 17 17 17 17 17 16 16 16 16 16 16 16 16 16 16 16 16 15 15 15 15 15 15 15
17 17 17 17 17 17 17 17 17 17 17 17 17 17 17 17 17 17 17 17 17 17 17 17 16 16 16 16 16 16 16 16 16 16 16 16 16 15 15 15 15 15 15
17 17 17 17 17 17 17 17 17 17 17 17 17 17 17 17 17 17 17 17 17 17 17 17 16 16 16 16 16 16 16 16 16 16 16 16 16 16 15 15 15 15 15
17 17 17 17 17 17 17 17 17 17 17 17 17 17 17 17 17 17 17 17 17 17 17 17 16 16 16 16 16 16 16 16 16 16 16 16 16 16 16 15 15 15 15
17 17 17 17 17 17 17 17 17 17 17 17 17 17 17 17 17 17 17 17 17 17 17 17 16 16 16 16 16 16 16 16 16 16 16 16 16 16 15 15 15 15 15
17 17 17 17 17 17 17 17 17 17 17 17 17 17 17 17 17 17 17 17 17 17 17 17 17 16 16 16 16 16 16 16 16 16 16 16 16 16 15 15 15 15 15
17 17 17 17 17 17 17 17 17 17 17 17 17 17 17 17 17 17 17 17 17 17 17 17 17 16 16 16 16 16 16 16 16 16 16 16 16 16 15 15 15 15 15
17 17 17 17 17 17 17 17 17 17 17 17 17 17 17 17 17 17 17 17 17 17 17 17 17 16 16 16 16 16 16 16 16 16 16 16 15 15 15 15 15 15 15
17 17 17 17 17 17 17 17 17 17 17 17 17 17 17 17 17 17 17 17 17 17 17 17 17 17 17 16 16 16 16 16 16 16 16 16 15 15 15 15 15 15 15
17 17 17 17 17 17 17 17 17 17 17 17 17 17 17 17 17 17 16 17 17 17 17 17 17 17 16 16 16 16 16 16 16 16 16 16 15 15 15 15 15 15 15
17 17 17 17 17 17 17 17 17 17 17 17 17 17 17 17 17 16 16 16 17 17 17 17 16 16 16 16 16 16 16 16 16 16 16 16 15 15 15 15 15 15 15
17 17 17 17 17 17 17 17 17 17 16 16 16 16 16 16 16 16 16 16 16 16 16 16 16 16 16 16 16 16 16 16 16 16 16 15 15 15 15 15 15 15 15
17 17 17 17 17 17 17 17 17 16 16 16 16 16 16 16 16 16 16 16 16 16 16 16 16 16 16 16 16 15 15 15 15 15 15 15 15 15 15 15 15 14 14
17 17 17 17 17 17 17 17 16 16 16 16 16 16 16 16 16 16 16 16 16 15 15 15 15 15 15 15 15 15 15 15 15 15 15 15 15 14 14 14 14 14 14
17 17 16 17 17 16 16 16 16 16 16 16 16 16 16 16 16 16 16 16 15 15 15 15 15 15 15 15 15 15 15 15 14 14 14 14 14 14 14 14 14 14 13
17 16 16 16 16 16 16 16 16 16 16 16 16 15 15 15 15 15 15 15 15 15 15 15 15 14 14 14 14 14 14 14 14 14 14 14 14 13 13 13 13 13 13
17 16 16 16 16 16 16 16 16 16 16 15 15 15 15 15 15 15 15 15 15 15 15 14 14 14 14 14 14 14 13 13 13 13 13 13 13 13 13 13 12 12 12
16 16 16 16 16 16 15 15 15 15 15 15 15 15 15 15 15 15 15 14 14 14 14 14 14 13 13 13 13 13 13 13 12 12 12 12 12 12 12 12 12 12 11
16 16 16 16 16 15 15 15 15 15 15 15 14 14 14 14 14 14 14 14 14 14 13 13 13 13 13 12 12 12 12 12 12 12 11 11 11 11 11 11 11 11 11
16 16 16 16 15 15 15 15 15 14 14 14 14 14 14 14 14 13 13 13 13 13 13 13 13 12 12 12 12 12 12 11 11 11 11 11 11 10 10 10 10 10 10
16 15 15 15 15 15 14 14 14 14 14 14 14 13 13 13 13 13 13 13 13 12 12 12 12 12 11 11 11 11 11 11 11 10 10 10 10 10 9 9 9 9 9
15 15 15 15 14 14 14 14 14 14 13 13 13 13 13 12 12 12 12 12 12 12 12 11 11 11 11 11 11 10 10 10 10 10 10 9 9 9 8 8 8 8 8
15 15 14 14 14 13 13 13 13 13 13 12 12 12 12 12 12 12 12 12 12 11 11 11 11 10 10 10 10 10 10 9 9 9 9 9 8 8 8 8 8 8 8
14 14 14 13 13 13 13 13 13 13 12 12 12 11 11 11 11 11 11 11 11 10 10 10 10 10 10 9 9 9 9 9 9 8 8 8 8 8 7 7 7 7 7
14 14 13 13 13 12 12 12 12 12 12 11 11 11 11 11 10 10 10 10 10 10 10 9 9 9 9 9 9 9 9 9 8 8 8 8 8 7 7 7 6 6 6
Wind_Speed
1 1 0 0 1 1 1 1 2 2 2 3 4 4 4 4 5 5 6 8 9 9 9 9 9 8 8 9 8 8 8 8 8 8 7 7 8 8 8 8 7 7 7
3 2 1 1 1 1 0 1 1 2 1 1 2 3 4 4 5 5 5 7 9 9 9 9 9 9 9 9 9 9 9 9 9 8 8 8 8 8 8 8 8 8 8
5 3 2 2 2 1 0 1 1 2 1 1 1 2 3 4 5 5 6 6 7 8 10 10 10 10 10 10 10 10 10 10 10 10 10 10 10 10 9 9 9 9 9
6 4 3 3 2 2 1 1 1 1 1 1 1 1 2 3 4 5 5 6 6 7 8 10 10 10 10 10 11 11 11 11 12 12 11 11 11 11 11 11 11 11 11
6 5 3 3 3 2 2 2 1 1 1 1 1 1 1 2 3 5 6 7 8 8 8 9 11 11 11 12 12 12 12 12 13 13 13 13 13 13 13 13 13 13 13
5 5 4 3 3 2 2 1 1 1 1 2 1 1 1 2 3 4 6 6 8 9 9 9 9 10 12 13 13 13 13 13 14 14 14 14 14 14 14 15 15 15 15
5 5 3 3 3 3 3 3 2 2 1 2 1 1 1 1 2 3 4 5 6 9 9 9 10 10 10 12 13 13 13 13 13 14 14 15 15 15 16 16 16 16 16
5 5 4 3 3 3 3 3 3 2 1 2 2 1 1 2 2 2 3 4 5 5 7 9 9 10 10 9 10 12 13 13 14 14 15 15 16 16 16 16 17 17 17
5 5 4 4 4 4 4 4 4 4 3 1 2 3 2 2 2 2 1 2 3 3 4 6 8 9 10 10 10 12 13 14 14 14 14 15 16 17 17 17 17 18 18
4 5 5 5 4 4 4 4 4 3 4 2 1 1 2 3 2 1 2 1 2 3 4 4 6 8 9 9 10 12 13 14 13 13 14 15 15 16 16 17 16 17 17
3 4 5 4 4 3 4 4 3 4 4 4 3 2 2 1 2 2 2 2 2 2 3 4 4 5 7 8 8 10 12 13 13 13 13 13 14 14 14 14 14 14 14
2 3 3 3 3 3 4 4 3 4 3 3 3 3 3 2 3 3 3 3 2 2 2 2 2 3 4 5 6 7 9 9 10 11 12 12 12 11 11 10 10 10 10
2 2 2 2 2 3 3 3 3 3 3 3 4 3 3 3 2 3 3 2 2 2 1 1 1 3 3 3 4 5 6 7 7 8 8 8 8 8 8 8 8 8 7
2 2 1 1 2 2 3 2 2 2 2 3 3 2 2 3 3 3 3 3 2 1 1 2 1 2 2 2 3 4 3 3 3 4 4 4 4 4 5 5 6 6 6
1 0 0 0 0 1 2 2 2 2 2 2 2 2 2 2 2 3 3 3 3 2 2 1 1 2 2 2 3 3 3 4 4 3 1 1 1 2 2 3 3 4 4
1 2 2 1 1 1 1 1 1 1 2 2 1 2 2 2 1 2 2 2 3 3 2 1 1 1 3 3 4 4 4 6 7 6 5 3 2 1 1 0 1 1 1
1 2 1 2 2 2 1 1 1 0 1 1 1 1 1 1 1 1 1 1 1 2 3 2 1 1 2 3 4 5 5 6 7 8 6 5 4 3 3 2 2 2 2
2 2 2 3 2 2 2 2 1 1 1 0 0 1 1 0 0 0 1 1 1 2 2 2 1 1 2 2 3 3 4 5 7 9 8 8 8 7 6 6 6 6 5
3 3 3 3 2 2 2 2 1 2 2 1 1 1 1 2 2 1 1 2 1 1 2 2 1 1 2 2 3 3 4 5 6 8 9 11 11 11 10 9 10 9 8
4 4 4 4 3 3 3 2 3 3 3 3 3 3 3 3 3 2 2 2 2 2 2 2 1 1 2 2 2 2 3 3 4 6 8 9 11 12 12 11 11 10 10
4 4 4 5 5 4 4 4 4 4 5 5 5 5 6 7 7 5 3 3 3 3 3 2 2 2 2 1 1 1 1 1 3 4 4 6 7 8 9 10 10 10 11
4 5 5 5 6 5 7 8 6 5 5 6 6 6 7 8 10 11 11 10 7 4 3 2 2 2 1 1 1 0 0 1 1 3 2 4 5 5 7 8 10 10 10
5 6 6 6 6 7 9 9 9 6 6 6 6 6 6 7 7 7 10 12 11 11 7 4 3 2 1 1 0 1 1 2 1 1 1 2 3 4 5 7 9 10 10
5 5 6 6 6 7 9 9 9 8 8 7 6 6 6 5 6 6 7 8 8 7 6 5 4 2 2 1 1 1 2 3 3 3 3 2 2 2 3 5 8 9 10
6 5 5 6 6 6 8 8 8 6 7 7 7 7 6 5 6 7 7 7 6 6 9 10 9 8 9 8 5 3 3 3 2 2 3 1 1 2 2 3 5 7 8
6 6 7 6 6 6 8 8 7 5 6 5 5 6 8 7 7 7 5 5 6 4 5 6 8 9 9 9 8 4 2 2 2 2 2 1 1 1 1 2 2 3 4
Wind_Direction
191 227 269 22 25 26 54 60 66 80 92 119 150 160 166 169 171 181 193 194 195 194 191 190 189 187 185 187 190 188 184 182 181 181 185 188 188 186 187 190 191 192 191
197 202 240 266 275 264 274 111 113 106 100 147 169 175 183 182 186 192 203 208 208 208 205 203 203 200 199 202 203 203 200 198 197 195 199 202 202 200 201 204 204 205 204
201 200 217 242 251 236 209 93 99 103 122 151 176 188 194 196 195 204 210 214 216 218 214 212 213 211 210 211 213 213 211 207 206 208 211 213 214 213 213 213 213 213 211
206 197 207 232 230 195 174 151 131 112 129 169 203 216 209 208 209 214 217 218 219 222 223 220 218 219 220 222 222 221 220 216 215 216 217 219 220 222 221 222 220 219 218
200 195 206 223 205 175 182 204 166 157 178 204 220 234 226 223 221 223 225 227 225 226 228 232 231 230 230 233 234 231 228 226 225 223 223 224 225 226 226 227 226 225 224
200 193 201 204 181 169 194 195 171 152 169 188 206 230 262 244 231 228 231 232 232 233 234 236 238 242 241 241 240 238 236 234 231 230 230 229 230 230 231 231 231 231 230
206 196 205 198 185 192 209 196 173 164 166 152 112 14 335 289 244 239 234 234 236 236 235 235 237 240 244 246 245 243 243 242 239 236 233 232 233 234 234 234 234 234 235
213 211 209 208 198 198 205 197 176 161 172 161 150 117 344 339 326 260 234 231 239 238 237 238 236 238 242 245 249 248 248 247 247 243 240 237 235 236 236 235 236 236 237
218 214 213 211 204 196 207 205 189 178 185 186 170 156 164 237 296 321 278 246 238 229 238 242 240 241 241 242 249 253 250 248 249 251 247 243 240 238 238 238 239 240 240
224 224 222 214 208 201 206 209 195 186 173 189 191 198 185 172 188 303 325 292 260 247 246 246 245 242 241 242 245 251 252 250 250 252 252 249 243 240 240 241 243 244 244
248 237 232 221 212 207 209 206 192 187 181 183 185 180 175 177 188 195 269 305 311 269 254 252 255 252 247 243 249 254 255 251 250 251 253 253 249 244 243 243 245 247 247
263 248 235 227 220 218 215 210 202 192 191 187 192 188 181 183 192 190 225 260 285 294 291 278 268 269 260 255 258 258 258 253 253 255 255 255 251 248 246 243 242 242 245
275 263 238 225 222 221 218 206 196 203 198 195 201 207 208 215 189 181 197 236 259 290 320 346 316 294 283 272 276 273 272 261 256 256 254 253 250 247 248 248 244 243 245
262 268 251 227 223 215 207 192 193 204 199 205 210 205 218 229 209 199 195 194 238 282 304 293 338 337 330 325 323 323 327 316 291 266 252 247 247 245 248 248 241 235 229
267 267 288 317 217 183 184 178 187 203 190 209 221 218 228 240 227 228 217 202 197 238 282 283 307 3 12 24 15 31 32 30 24 26 17 307 265 256 259 261 255 244 222
39 72 64 52 50 69 126 152 179 201 190 222 215 212 232 247 241 237 223 217 208 206 238 272 285 348 18 26 33 42 39 40 42 39 36 33 34 29 11 327 264 268 246
76 81 77 66 61 51 56 80 67 122 167 221 230 207 248 259 233 243 211 191 197 193 221 274 311 358 19 27 31 40 45 55 51 48 49 51 53 58 64 67 75 86 95
80 84 83 73 64 57 59 76 59 50 91 111 190 116 298 303 360 10 131 142 171 186 190 241 315 6 17 26 34 39 50 54 57 53 56 57 59 63 69 79 85 84 80
72 71 77 73 60 51 52 62 82 77 73 60 53 70 44 70 59 51 82 98 115 133 160 186 264 21 33 26 30 40 51 51 57 53 58 59 60 64 67 71 76 77 77
71 66 65 62 55 54 53 61 76 82 73 62 59 63 66 74 73 62 66 68 86 93 100 115 94 45 37 21 38 40 41 37 40 47 56 59 59 62 62 64 67 69 71
73 72 69 58 52 54 53 65 71 76 75 71 61 59 67 73 73 72 75 72 85 93 94 93 83 61 38 28 10 360 43 43 48 39 50 47 50 53 52 56 63 66 68
78 76 70 64 57 58 58 62 71 73 75 76 69 61 62 61 69 71 72 71 74 85 93 88 79 76 22 337 326 3 98 58 49 13 34 44 47 53 48 53 58 63 67
79 75 69 68 66 58 58 63 67 77 78 72 68 65 64 58 61 69 67 66 62 61 70 97 93 68 19 327 54 79 82 73 69 13 44 55 43 55 47 52 59 63 66
79 75 70 72 72 61 61 65 70 74 76 69 62 64 70 59 61 74 76 70 61 51 56 69 78 55 46 53 95 115 118 98 79 48 41 64 38 40 45 46 57 62 62
83 75 71 67 67 55 57 67 77 81 76 65 58 58 66 64 58 70 81 79 65 48 57 67 69 63 60 61 77 92 88 95 72 42 26 62 49 38 37 36 43 52 57
94 86 74 64 65 60 55 66 75 88 84 73 59 53 58 63 59 62 82 86 75 46 44 48 49 49 52 54 58 66 92 104 88 54 17 44 53 58 54 16 13 34 50
Height
1572 1573 1573 1574 1575 1576 1577 1577 1578 1578 1579 1580 1580 1581 1581 1582 1582 1582 1583 1583 1584 1584 1585 1586 1586 1587 1588 1589 1590 1591 1591 1592 1593 1594 1595 1595 1596 1597 1598 1598 1599 1600 1600
1573 1573 1574 1575 1576 1577 1577 1578 1578 1579 1579 1580 1581 1581 1582 1582 1582 1583 1583 1584 1584 1584 1585 1586 1586 1587 1588 1589 1589 1590 1591 1592 1592 1593 1594 1595 1595 1596 1597 1597 1598 1599 1600
1573 1574 1574 1575 1576 1577 1577 1578 1579 1579 1580 1580 1581 1581 1582 1582 1582 1583 1583 1583 1584 1584 1585 1585 1586 1587 1587 1588 1589 1589 1590 1591 1591 1592 1593 1593 1594 1595 1596 1596 1597 1597 1598
1573 1573 1574 1575 1576 1576 1577 1578 1578 1579 1579 1580 1580 1581 1581 1582 1582 1582 1583 1583 1583 1584 1584 1585 1585 1586 1586 1587 1587 1588 1589 1589 1590 1590 1591 1592 1592 1593 1594 1595 1595 1596 1597
1572 1573 1573 1574 1575 1576 1576 1577 1577 1578 1579 1579 1580 1580 1581 1581 1581 1582 1582 1582 1583 1583 1583 1584 1584 1585 1585 1585 1586 1586 1587 1587 1588 1589 1589 1590 1590 1591 1592 1592 1593 1594 1594
1571 1571 1572 1573 1574 1575 1575 1576 1577 1577 1578 1578 1579 1579 1579 1580 1580 1580 1581 1581 1582 1582 1582 1583 1583 1583 1583 1584 1584 1585 1585 1585 1586 1586 1587 1587 1588 1589 1589 1590 1590 1591 1592
1569 1570 1571 1571 1572 1573 1574 1574 1575 1576 1577 1577 1578 1578 1578 1578 1578 1579 1579 1580 1580 1580 1581 1581 1581 1581 1582 1582 1582 1583 1583 1583 1583 1584 1584 1585 1585 1585 1586 1586 1587 1588 1589
1567 1568 1569 1569 1570 1571 1572 1573 1573 1574 1575 1576 1576 1576 1576 1577 1576 1577 1577 1578 1578 1578 1579 1579 1579 1579 1580 1580 1580 1580 1581 1581 1581 1581 1581 1581 1582 1582 1582 1583 1584 1584 1585
1565 1566 1566 1567 1568 1569 1570 1571 1572 1572 1573 1574 1575 1576 1575 1575 1575 1575 1575 1576 1576 1576 1576 1576 1577 1577 1577 1577 1577 1577 1578 1578 1578 1578 1578 1578 1578 1578 1579 1579 1580 1580 1581
1563 1563 1564 1565 1566 1567 1567 1568 1569 1570 1571 1572 1573 1573 1574 1574 1574 1573 1574 1574 1574 1574 1574 1574 1574 1574 1574 1574 1574 1574 1574 1574 1574 1574 1574 1574 1575 1575 1575 1575 1576 1576 1577
1561 1561 1562 1562 1563 1564 1565 1566 1567 1568 1568 1569 1570 1571 1571 1572 1572 1572 1571 1572 1572 1572 1572 1572 1571 1571 1571 1571 1570 1570 1570 1570 1570 1570 1571 1570 1571 1571 1571 1571 1571 1572 1572
1559 1559 1560 1560 1561 1562 1563 1564 1564 1565 1566 1567 1567 1568 1569 1569 1569 1569 1569 1569 1569 1569 1569 1569 1569 1568 1568 1568 1567 1567 1567 1566 1566 1566 1566 1566 1567 1567 1567 1567 1567 1567 1567
1557 1557 1557 1558 1559 1560 1561 1561 1562 1563 1563 1564 1565 1565 1566 1566 1567 1567 1567 1566 1566 1566 1566 1566 1566 1566 1565 1565 1564 1564 1563 1562 1562 1562 1562 1562 1562 1562 1562 1562 1563 1563 1563
1555 1556 1556 1556 1557 1557 1558 1559 1559 1560 1561 1561 1562 1562 1563 1563 1564 1564 1564 1564 1563 1563 1563 1563 1563 1563 1563 1562 1562 1561 1560 1559 1559 1558 1558 1558 1557 1557 1558 1558 1558 1558 1559
1554 1554 1554 1555 1555 1555 1556 1556 1557 1557 1558 1558 1559 1560 1560 1560 1561 1561 1562 1562 1562 1561 1560 1561 1561 1561 1560 1560 1559 1558 1557 1556 1556 1555 1554 1554 1554 1553 1553 1554 1554 1554 1555
1553 1553 1553 1553 1553 1554 1554 1554 1555 1555 1555 1556 1556 1557 1557 1558 1558 1558 1558 1559 1559 1559 1558 1557 1558 1558 1558 1557 1556 1555 1554 1554 1553 1552 1551 1551 1550 1550 1550 1549 1550 1550 1550
1552 1552 1552 1552 1552 1552 1552 1552 1552 1552 1553 1553 1554 1554 1554 1555 1555 1555 1555 1555 1555 1555 1555 1555 1555 1555 1555 1554 1554 1553 1552 1551 1550 1550 1549 1548 1547 1547 1546 1546 1546 1546 1546
1552 1552 1551 1551 1551 1551 1551 1551 1551 1551 1551 1551 1551 1552 1552 1552 1552 1552 1552 1552 1552 1552 1552 1552 1552 1552 1552 1552 1551 1550 1549 1549 1548 1547 1547 1546 1545 1545 1544 1543 1543 1543 1543
1551 1551 1551 1551 1550 1550 1550 1549 1549 1549 1549 1549 1550 1550 1550 1550 1549 1549 1549 1548 1549 1549 1549 1549 1549 1549 1549 1549 1548 1548 1547 1547 1546 1546 1545 1544 1543 1543 1542 1541 1540 1540 1540
1551 1551 1550 1550 1550 1550 1549 1549 1549 1548 1548 1548 1548 1548 1548 1548 1547 1547 1546 1546 1546 1547 1547 1547 1547 1547 1547 1546 1546 1546 1545 1545 1545 1545 1544 1543 1542 1541 1541 1540 1539 1538 1538
1551 1551 1551 1550 1550 1549 1549 1549 1548 1548 1547 1547 1547 1547 1547 1547 1546 1545 1545 1545 1545 1544 1544 1544 1544 1544 1544 1544 1544 1544 1543 1543 1543 1543 1542 1542 1541 1540 1540 1539 1538 1537 1536
1551 1551 1550 1550 1550 1549 1549 1549 1548 1547 1547 1546 1546 1546 1546 1546 1545 1545 1544 1544 1544 1543 1543 1543 1543 1543 1542 1543 1543 1542 1542 1542 1541 1542 1541 1540 1540 1539 1539 1538 1537 1536 1536
1551 1550 1550 1550 1550 1549 1549 1548 1548 1547 1546 1546 1546 1545 1545 1545 1545 1545 1544 1543 1543 1543 1543 1542 1542 1542 1542 1542 1541 1541 1541 1540 1540 1540 1540 1539 1539 1538 1538 1537 1537 1536 1535
1551 1550 1550 1550 1550 1549 1549 1549 1548 1547 1546 1546 1546 1546 1546 1546 1545 1545 1544 1543 1543 1542 1542 1542 1542 1541 1541 1541 1540 1540 1540 1540 1539 1539 1539 1539 1538 1538 1538 1537 1537 1535 1535
1551 1551 1551 1551 1550 1550 1550 1549 1549 1548 1547 1547 1547 1547 1547 1546 1546 1546 1545 1544 1543 1543 1543 1543 1542 1542 1541 1540 1540 1540 1539 1539 1538 1539 1539 1538 1538 1538 1538 1537 1537 1536 1535
1551 1551 1551 1551 1551 1551 1550 1550 1549 1549 1548 1548 1548 1548 1548 1547 1547 1547 1546 1545 1544 1545 1544 1543 1543 1542 1541 1541 1540 1540 1539 1539 1538 1539 1538 1538 1538 1538 1538 1538 1537 1536 1535